Location: Fort Wayne
(41.1310°N, 85.1290°W)
Time: 14:30:53
(UTC-04:00)

Helios 1B - Visible Passes

Search period start: 20 April 2014 00:00
Search period end: 30 April 2014 00:00
Orbit: 627 x 630 km, 98.2° (Epoch: 19 April)

Date Brightness Start Highest point End Pass type
(mag) Time Alt. Az. Time Alt. Az. Time Alt. Az.
20 Apr 6.9 22:16:25 11° ENE 22:16:25 11° ENE 22:17:05 10° NE visible
20 Apr 6.3 23:53:45 32° NNW 23:53:45 32° NNW 23:56:07 10° NNW visible
21 Apr 6.6 22:36:32 16° NE 22:36:32 16° NE 22:38:39 10° NNE visible
22 Apr 6.6 00:13:52 26° NW 00:13:52 26° NW 00:15:57 10° NNW visible
22 Apr 6.2 22:56:38 24° NE 22:56:38 24° NE 22:59:16 10° NNE visible
23 Apr 7.0 00:33:59 19° NW 00:33:59 19° NW 00:35:34 10° NW visible
23 Apr 5.8 23:16:45 33° NNE 23:16:45 33° NNE 23:19:35 10° N visible
24 Apr 7.4 00:54:05 13° WNW 00:54:05 13° WNW 00:54:49 10° NW visible
24 Apr 5.7 23:36:51 40° N 23:36:51 40° N 23:39:43 10° N visible
25 Apr 6.8 22:19:36 11° ENE 22:19:39 11° ENE 22:21:04 10° NE visible
25 Apr 6.0 23:56:56 37° NNW 23:56:56 37° NNW 23:59:40 10° NNW visible
26 Apr 6.4 22:39:41 18° ENE 22:39:41 18° ENE 22:42:17 10° NNE visible
27 Apr 6.4 00:17:01 28° NW 00:17:01 28° NW 00:19:26 10° NNW visible
27 Apr 6.0 22:59:46 27° NE 22:59:46 27° NE 23:02:49 10° N visible
28 Apr 6.9 00:37:06 20° WNW 00:37:06 20° WNW 00:38:59 10° NW visible
28 Apr 5.5 23:19:50 38° NE 23:19:50 38° NE 23:23:04 10° N visible
29 Apr 7.3 00:57:10 13° WNW 00:57:10 13° WNW 00:58:07 10° NW visible
29 Apr 5.4 23:39:54 48° N 23:39:54 48° N 23:43:08 10° N visible
